Year,Month,Day,Hour,Minute,Value (Times are PST for temperature in C)
2005,07,04,00,00,17.30
2005,07,04,00,01,17.30
2005,07,04,00,02,17.30
2005,07,04,00,03,17.30
2005,07,04,00,04,17.30
2005,07,04,00,05,17.30
2005,07,04,00,06,17.30
2005,07,04,00,07,17.30
2005,07,04,00,08,17.30
2005,07,04,00,09,17.30
2005,07,04,00,10,17.20
2005,07,04,00,11,17.20
2005,07,04,00,12,17.20
2005,07,04,00,13,17.20
2005,07,04,00,14,17.20
2005,07,04,00,15,17.20
2005,07,04,00,16,17.20
2005,07,04,00,17,17.20
2005,07,04,00,18,17.20
2005,07,04,00,19,17.20
2005,07,04,00,20,17.10
2005,07,04,00,21,17.10
2005,07,04,00,22,17.10
2005,07,04,00,23,17.10
2005,07,04,00,24,17.10
2005,07,04,00,25,17.10
2005,07,04,00,26,17.10
2005,07,04,00,27,17.10
2005,07,04,00,28,17.10
2005,07,04,00,29,17.10
2005,07,04,00,30,17.10
2005,07,04,00,31,17.10
2005,07,04,00,32,17.00
2005,07,04,00,33,17.00
2005,07,04,00,34,17.00
2005,07,04,00,35,17.00
2005,07,04,00,36,17.00
2005,07,04,00,37,17.00
2005,07,04,00,38,17.00
2005,07,04,00,39,16.90
2005,07,04,00,40,16.90
2005,07,04,00,41,16.90
2005,07,04,00,42,16.90
2005,07,04,00,43,16.90
2005,07,04,00,44,16.90
2005,07,04,00,45,16.90
2005,07,04,00,46,16.80
2005,07,04,00,47,16.80
2005,07,04,00,48,16.80
2005,07,04,00,49,16.80
2005,07,04,00,50,16.70
2005,07,04,00,51,16.70
2005,07,04,00,52,16.70
2005,07,04,00,53,16.70
2005,07,04,00,54,16.70
2005,07,04,00,55,16.70
2005,07,04,00,56,16.70
2005,07,04,00,57,16.70
2005,07,04,00,58,16.70
2005,07,04,00,59,16.70
2005,07,04,01,00,16.70
2005,07,04,01,01,16.70
2005,07,04,01,02,16.70
2005,07,04,01,03,16.70
2005,07,04,01,04,16.70
2005,07,04,01,05,16.70
2005,07,04,01,06,16.70
2005,07,04,01,07,16.70
2005,07,04,01,08,16.70
2005,07,04,01,09,16.70
2005,07,04,01,10,16.70
2005,07,04,01,11,16.70
2005,07,04,01,12,16.70
2005,07,04,01,13,16.60
2005,07,04,01,14,16.60
2005,07,04,01,15,16.60
2005,07,04,01,16,16.60
2005,07,04,01,17,16.60
2005,07,04,01,18,16.60
2005,07,04,01,19,16.60
2005,07,04,01,20,16.60
2005,07,04,01,21,16.60
2005,07,04,01,22,16.60
2005,07,04,01,23,16.60
2005,07,04,01,24,16.60
2005,07,04,01,25,16.60
2005,07,04,01,26,16.60
2005,07,04,01,27,16.60
2005,07,04,01,28,16.60
2005,07,04,01,29,16.60
2005,07,04,01,30,16.60
2005,07,04,01,31,16.60
2005,07,04,01,32,16.60
2005,07,04,01,33,16.60
2005,07,04,01,34,16.60
2005,07,04,01,35,16.60
2005,07,04,01,36,16.60
2005,07,04,01,37,16.60
2005,07,04,01,38,16.60
2005,07,04,01,39,16.70
2005,07,04,01,40,16.60
2005,07,04,01,41,16.60
2005,07,04,01,42,16.60
2005,07,04,01,43,16.60
2005,07,04,01,44,16.60
2005,07,04,01,45,16.60
2005,07,04,01,46,16.60
2005,07,04,01,47,16.60
2005,07,04,01,48,16.60
2005,07,04,01,49,16.60
2005,07,04,01,50,16.60
2005,07,04,01,51,16.60
2005,07,04,01,52,16.60
2005,07,04,01,53,16.60
2005,07,04,01,54,16.60
2005,07,04,01,55,16.60
2005,07,04,01,56,16.60
2005,07,04,01,57,16.60
2005,07,04,01,58,16.50
2005,07,04,01,59,16.40
2005,07,04,02,00,16.40
2005,07,04,02,01,16.40
2005,07,04,02,02,16.40
2005,07,04,02,03,16.40
2005,07,04,02,04,16.40
2005,07,04,02,05,16.40
2005,07,04,02,06,16.40
2005,07,04,02,07,16.30
2005,07,04,02,08,16.30
2005,07,04,02,09,16.30
2005,07,04,02,10,16.30
2005,07,04,02,11,16.30
2005,07,04,02,12,16.30
2005,07,04,02,13,16.30
2005,07,04,02,14,16.20
2005,07,04,02,15,16.20
2005,07,04,02,16,16.20
2005,07,04,02,17,16.20
2005,07,04,02,18,16.20
2005,07,04,02,19,16.10
2005,07,04,02,20,16.10
2005,07,04,02,21,16.10
2005,07,04,02,22,16.10
2005,07,04,02,23,16.00
2005,07,04,02,24,15.90
2005,07,04,02,25,15.90
2005,07,04,02,26,15.90
2005,07,04,02,27,15.90
2005,07,04,02,28,15.80
2005,07,04,02,29,15.80
2005,07,04,02,30,15.80
2005,07,04,02,31,15.70
2005,07,04,02,32,15.70
2005,07,04,02,33,15.70
2005,07,04,02,34,15.70
2005,07,04,02,35,15.60
2005,07,04,02,36,15.60
2005,07,04,02,37,15.50
2005,07,04,02,38,15.50
2005,07,04,02,39,15.50
2005,07,04,02,40,15.40
2005,07,04,02,41,15.40
2005,07,04,02,42,15.40
2005,07,04,02,43,15.40
2005,07,04,02,44,15.30
2005,07,04,02,45,15.30
2005,07,04,02,46,15.30
2005,07,04,02,47,15.30
2005,07,04,02,48,15.30
2005,07,04,02,49,15.30
2005,07,04,02,50,15.30
2005,07,04,02,51,15.30
2005,07,04,02,52,15.30
2005,07,04,02,53,15.30
2005,07,04,02,54,15.30
2005,07,04,02,55,15.30
2005,07,04,02,56,15.30
2005,07,04,02,57,15.30
2005,07,04,02,58,15.30
2005,07,04,02,59,15.30
2005,07,04,03,00,15.30
2005,07,04,03,01,15.30
2005,07,04,03,02,15.40
2005,07,04,03,03,15.40
2005,07,04,03,04,15.40
2005,07,04,03,05,15.40
2005,07,04,03,06,15.40
2005,07,04,03,07,15.40
2005,07,04,03,08,15.40
2005,07,04,03,09,15.40
2005,07,04,03,10,15.40
2005,07,04,03,11,15.50
2005,07,04,03,12,15.50
2005,07,04,03,13,15.50
2005,07,04,03,14,15.50
2005,07,04,03,15,15.50
2005,07,04,03,16,15.50
2005,07,04,03,17,15.50
2005,07,04,03,18,15.50
2005,07,04,03,19,15.50
2005,07,04,03,20,15.50
2005,07,04,03,21,15.50
2005,07,04,03,22,15.50
2005,07,04,03,23,15.50
2005,07,04,03,24,15.50
2005,07,04,03,25,15.40
2005,07,04,03,26,15.40
2005,07,04,03,27,15.40
2005,07,04,03,28,15.40
2005,07,04,03,29,15.40
2005,07,04,03,30,15.40
2005,07,04,03,31,15.30
2005,07,04,03,32,15.30
2005,07,04,03,33,15.30
2005,07,04,03,34,15.30
2005,07,04,03,35,15.30
2005,07,04,03,36,15.30
2005,07,04,03,37,15.30
2005,07,04,03,38,15.30
2005,07,04,03,39,15.30
2005,07,04,03,40,15.30
2005,07,04,03,41,15.30
2005,07,04,03,42,15.30
2005,07,04,03,43,15.30
2005,07,04,03,44,15.30
2005,07,04,03,45,15.30
2005,07,04,03,46,15.30
2005,07,04,03,47,15.30
2005,07,04,03,48,15.30
2005,07,04,03,49,15.30
2005,07,04,03,50,15.30
2005,07,04,03,51,15.30
2005,07,04,03,52,15.30
2005,07,04,03,53,15.30
2005,07,04,03,54,15.30
2005,07,04,03,55,15.30
2005,07,04,03,56,15.30
2005,07,04,03,57,15.30
2005,07,04,03,58,15.30
2005,07,04,03,59,15.20
2005,07,04,04,00,15.20
2005,07,04,04,01,15.20
2005,07,04,04,02,15.20
2005,07,04,04,03,15.20
2005,07,04,04,04,15.20
2005,07,04,04,05,15.20
2005,07,04,04,06,15.20
2005,07,04,04,07,15.20
2005,07,04,04,08,15.20
2005,07,04,04,09,15.20
2005,07,04,04,10,15.20
2005,07,04,04,11,15.20
2005,07,04,04,12,15.20
2005,07,04,04,13,15.10
2005,07,04,04,14,15.10
2005,07,04,04,15,15.10
2005,07,04,04,16,15.10
2005,07,04,04,17,15.10
2005,07,04,04,18,15.10
2005,07,04,04,19,15.10
2005,07,04,04,20,15.10
2005,07,04,04,21,15.10
2005,07,04,04,22,15.10
2005,07,04,04,23,15.10
2005,07,04,04,24,15.10
2005,07,04,04,25,15.10
2005,07,04,04,26,15.10
2005,07,04,04,27,15.10
2005,07,04,04,28,15.10
2005,07,04,04,29,15.20
2005,07,04,04,30,15.20
2005,07,04,04,31,15.20
2005,07,04,04,32,15.20
2005,07,04,04,33,15.20
2005,07,04,04,34,15.10
2005,07,04,04,35,15.10
2005,07,04,04,36,15.10
2005,07,04,04,37,15.10
2005,07,04,04,38,15.10
2005,07,04,04,39,15.10
2005,07,04,04,40,15.10
2005,07,04,04,41,15.10
2005,07,04,04,42,15.10
2005,07,04,04,43,15.10
2005,07,04,04,44,15.10
2005,07,04,04,45,15.10
2005,07,04,04,46,15.10
2005,07,04,04,47,15.10
2005,07,04,04,48,15.10
2005,07,04,04,49,15.10
2005,07,04,04,50,15.10
2005,07,04,04,51,15.10
2005,07,04,04,52,15.10
2005,07,04,04,53,15.10
2005,07,04,04,54,15.10
2005,07,04,04,55,15.10
2005,07,04,04,56,15.10
2005,07,04,04,57,15.10
2005,07,04,04,58,15.10
2005,07,04,04,59,15.10
2005,07,04,05,00,15.10
2005,07,04,05,01,15.00
2005,07,04,05,02,15.00
2005,07,04,05,03,15.00
2005,07,04,05,04,15.00
2005,07,04,05,05,15.10
2005,07,04,05,06,15.10
2005,07,04,05,07,15.10
2005,07,04,05,08,15.10
2005,07,04,05,09,15.10
2005,07,04,05,10,15.10
2005,07,04,05,11,15.10
2005,07,04,05,12,15.10
2005,07,04,05,13,15.10
2005,07,04,05,14,15.10
2005,07,04,05,15,15.10
2005,07,04,05,16,15.10
2005,07,04,05,17,15.10
2005,07,04,05,18,15.10
2005,07,04,05,19,15.10
2005,07,04,05,20,15.10
2005,07,04,05,21,15.10
2005,07,04,05,22,15.10
2005,07,04,05,23,15.10
2005,07,04,05,24,15.10
2005,07,04,05,25,15.10
2005,07,04,05,26,15.10
2005,07,04,05,27,15.10
2005,07,04,05,28,15.10
2005,07,04,05,29,15.10
2005,07,04,05,30,15.10
2005,07,04,05,31,15.10
2005,07,04,05,32,15.10
2005,07,04,05,33,15.10
2005,07,04,05,34,15.10
2005,07,04,05,35,15.10
2005,07,04,05,36,15.10
2005,07,04,05,37,15.10
2005,07,04,05,38,15.20
2005,07,04,05,39,15.20
2005,07,04,05,40,15.20
2005,07,04,05,41,15.20
2005,07,04,05,42,15.20
2005,07,04,05,43,15.20
2005,07,04,05,44,15.20
2005,07,04,05,45,15.20
2005,07,04,05,46,15.20
2005,07,04,05,47,15.20
2005,07,04,05,48,15.20
2005,07,04,05,49,15.20
2005,07,04,05,50,15.20
2005,07,04,05,51,15.20
2005,07,04,05,52,15.20
2005,07,04,05,53,15.20
2005,07,04,05,54,15.20
2005,07,04,05,55,15.20
2005,07,04,05,56,15.20
2005,07,04,05,57,15.20
2005,07,04,05,58,15.20
2005,07,04,05,59,15.20
2005,07,04,06,00,15.20
2005,07,04,06,01,15.20
2005,07,04,06,02,15.20
2005,07,04,06,03,15.20
2005,07,04,06,04,15.20
2005,07,04,06,05,15.20
2005,07,04,06,06,15.20
2005,07,04,06,07,15.20
2005,07,04,06,08,15.20
2005,07,04,06,09,15.20
2005,07,04,06,10,15.20
2005,07,04,06,11,15.20
2005,07,04,06,12,15.20
2005,07,04,06,13,15.20
2005,07,04,06,14,15.20
2005,07,04,06,15,15.20
2005,07,04,06,16,15.20
2005,07,04,06,17,15.20
2005,07,04,06,18,15.20
2005,07,04,06,19,15.20
2005,07,04,06,20,15.30
2005,07,04,06,21,15.30
2005,07,04,06,22,15.20
2005,07,04,06,23,15.20
2005,07,04,06,24,15.30
2005,07,04,06,25,15.30
2005,07,04,06,26,15.30
2005,07,04,06,27,15.30
2005,07,04,06,28,15.30
2005,07,04,06,29,15.30
2005,07,04,06,30,15.30
2005,07,04,06,31,15.30
2005,07,04,06,32,15.30
2005,07,04,06,33,15.30
2005,07,04,06,34,15.30
2005,07,04,06,35,15.30
2005,07,04,06,36,15.30
2005,07,04,06,37,15.40
2005,07,04,06,38,15.40
2005,07,04,06,39,15.40
2005,07,04,06,40,15.40
2005,07,04,06,41,15.40
2005,07,04,06,42,15.30
2005,07,04,06,43,15.30
2005,07,04,06,44,15.30
2005,07,04,06,45,15.30
2005,07,04,06,46,15.30
2005,07,04,06,47,15.30
2005,07,04,06,48,15.30
2005,07,04,06,49,15.30
2005,07,04,06,50,15.30
2005,07,04,06,51,15.30
2005,07,04,06,52,15.40
2005,07,04,06,53,15.40
2005,07,04,06,54,15.40
2005,07,04,06,55,15.50
2005,07,04,06,56,15.50
2005,07,04,06,57,15.50
2005,07,04,06,58,15.60
2005,07,04,06,59,15.60
2005,07,04,07,00,15.70
2005,07,04,07,01,15.70
2005,07,04,07,02,15.80
2005,07,04,07,03,15.80
2005,07,04,07,04,15.90
2005,07,04,07,05,16.00
2005,07,04,07,06,16.10
2005,07,04,07,07,16.10
2005,07,04,07,08,16.10
2005,07,04,07,09,16.10
2005,07,04,07,10,16.10
2005,07,04,07,11,16.10
2005,07,04,07,12,16.10
2005,07,04,07,13,16.10
2005,07,04,07,14,16.20
2005,07,04,07,15,16.20
2005,07,04,07,16,16.20
2005,07,04,07,17,16.20
2005,07,04,07,18,16.20
2005,07,04,07,19,16.30
2005,07,04,07,20,16.30
2005,07,04,07,21,16.40
2005,07,04,07,22,16.50
2005,07,04,07,23,16.60
2005,07,04,07,24,16.70
2005,07,04,07,25,16.70
2005,07,04,07,26,16.80
2005,07,04,07,27,16.90
2005,07,04,07,28,16.90
2005,07,04,07,29,17.00
2005,07,04,07,30,17.10
2005,07,04,07,31,17.10
2005,07,04,07,32,17.00
2005,07,04,07,33,17.00
2005,07,04,07,34,17.00
2005,07,04,07,35,17.00
2005,07,04,07,36,16.90
2005,07,04,07,37,16.90
2005,07,04,07,38,16.90
2005,07,04,07,39,16.90
2005,07,04,07,40,16.80
2005,07,04,07,41,16.80
2005,07,04,07,42,16.70
2005,07,04,07,43,16.70
2005,07,04,07,44,16.70
2005,07,04,07,45,16.70
2005,07,04,07,46,16.70
2005,07,04,07,47,16.70
2005,07,04,07,48,16.70
2005,07,04,07,49,16.70
2005,07,04,07,50,16.70
2005,07,04,07,51,16.70
2005,07,04,07,52,16.70
2005,07,04,07,53,16.50
2005,07,04,07,54,16.40
2005,07,04,07,55,16.40
2005,07,04,07,56,16.30
2005,07,04,07,57,16.30
2005,07,04,07,58,16.30
2005,07,04,07,59,16.30
2005,07,04,08,00,16.30
2005,07,04,08,01,16.20
2005,07,04,08,02,16.20
2005,07,04,08,03,16.10
2005,07,04,08,04,16.10
2005,07,04,08,05,16.10
2005,07,04,08,06,16.10
2005,07,04,08,07,16.20
2005,07,04,08,08,16.30
2005,07,04,08,09,16.30
2005,07,04,08,10,16.30
2005,07,04,08,11,16.30
2005,07,04,08,12,16.30
2005,07,04,08,13,16.30
2005,07,04,08,14,16.40
2005,07,04,08,15,16.40
2005,07,04,08,16,16.40
2005,07,04,08,17,16.40
2005,07,04,08,18,16.40
2005,07,04,08,19,16.40
2005,07,04,08,20,16.40
2005,07,04,08,21,16.60
2005,07,04,08,22,16.60
2005,07,04,08,23,16.60
2005,07,04,08,24,16.50
2005,07,04,08,25,16.40
2005,07,04,08,26,16.40
2005,07,04,08,27,16.30
2005,07,04,08,28,16.20
2005,07,04,08,29,16.10
2005,07,04,08,30,15.90
2005,07,04,08,31,15.80
2005,07,04,08,32,15.80
2005,07,04,08,33,15.80
2005,07,04,08,34,15.80
2005,07,04,08,35,15.80
2005,07,04,08,36,15.80
2005,07,04,08,37,15.80
2005,07,04,08,38,15.80
2005,07,04,08,39,15.80
2005,07,04,08,40,15.80
2005,07,04,08,41,15.80
2005,07,04,08,42,15.80
2005,07,04,08,43,15.90
2005,07,04,08,44,16.00
2005,07,04,08,45,16.10
2005,07,04,08,46,16.10
2005,07,04,08,47,16.10
2005,07,04,08,48,16.20
2005,07,04,08,49,16.20
2005,07,04,08,50,16.20
2005,07,04,08,51,16.30
2005,07,04,08,52,16.30
2005,07,04,08,53,16.30
2005,07,04,08,54,16.30
2005,07,04,08,55,16.40
2005,07,04,08,56,16.40
2005,07,04,08,57,16.50
2005,07,04,08,58,16.60
2005,07,04,08,59,16.50
2005,07,04,09,00,16.40
2005,07,04,09,01,16.40
2005,07,04,09,02,16.40
2005,07,04,09,03,16.40
2005,07,04,09,04,16.40
2005,07,04,09,05,16.40
2005,07,04,09,06,16.40
2005,07,04,09,07,16.50
2005,07,04,09,08,16.60
2005,07,04,09,09,16.60
2005,07,04,09,10,16.60
2005,07,04,09,11,16.60
2005,07,04,09,12,16.70
2005,07,04,09,13,16.70
2005,07,04,09,14,16.80
2005,07,04,09,15,16.80
2005,07,04,09,16,16.90
2005,07,04,09,17,16.90
2005,07,04,09,18,16.90
2005,07,04,09,19,16.90
2005,07,04,09,20,17.00
2005,07,04,09,21,16.90
2005,07,04,09,22,17.00
2005,07,04,09,23,17.00
2005,07,04,09,24,17.10
2005,07,04,09,25,17.10
2005,07,04,09,26,17.20
2005,07,04,09,27,17.30
2005,07,04,09,28,17.30
2005,07,04,09,29,17.30
2005,07,04,09,30,17.40
2005,07,04,09,31,17.50
2005,07,04,09,32,17.70
2005,07,04,09,33,17.70
2005,07,04,09,34,17.80
2005,07,04,09,35,17.80
2005,07,04,09,36,17.80
2005,07,04,09,37,17.70
2005,07,04,09,38,17.80
2005,07,04,09,39,17.80
2005,07,04,09,40,17.70
2005,07,04,09,41,17.70
2005,07,04,09,42,17.70
2005,07,04,09,43,17.70
2005,07,04,09,44,17.70
2005,07,04,09,45,17.70
2005,07,04,09,46,17.70
2005,07,04,09,47,17.80
2005,07,04,09,48,17.80
2005,07,04,09,49,17.80
2005,07,04,09,50,17.80
2005,07,04,09,51,17.80
2005,07,04,09,52,17.80
2005,07,04,09,53,17.80
2005,07,04,09,54,17.80
2005,07,04,09,55,17.90
2005,07,04,09,56,17.90
2005,07,04,09,57,17.90
2005,07,04,09,58,17.90
2005,07,04,09,59,17.90
2005,07,04,10,00,18.00
2005,07,04,10,01,17.90
2005,07,04,10,02,17.90
2005,07,04,10,03,17.90
2005,07,04,10,04,17.80
2005,07,04,10,05,17.70
2005,07,04,10,06,17.70
2005,07,04,10,07,17.70
2005,07,04,10,08,17.60
2005,07,04,10,09,17.60
2005,07,04,10,10,17.60
2005,07,04,10,11,17.60
2005,07,04,10,12,17.60
2005,07,04,10,13,17.60
2005,07,04,10,14,17.60
2005,07,04,10,15,17.60
2005,07,04,10,16,17.60
2005,07,04,10,17,17.70
2005,07,04,10,18,17.70
2005,07,04,10,19,17.80
2005,07,04,10,20,17.80
2005,07,04,10,21,17.90
2005,07,04,10,22,17.90
2005,07,04,10,23,17.90
2005,07,04,10,24,17.90
2005,07,04,10,25,17.90
2005,07,04,10,26,17.90
2005,07,04,10,27,17.90
2005,07,04,10,28,17.90
2005,07,04,10,29,17.90
2005,07,04,10,30,17.90
2005,07,04,10,31,17.90
2005,07,04,10,32,17.90
2005,07,04,10,33,17.90
2005,07,04,10,34,17.90
2005,07,04,10,35,17.90
2005,07,04,10,36,17.90
2005,07,04,10,37,17.80
2005,07,04,10,38,17.80
2005,07,04,10,39,17.80
2005,07,04,10,40,17.80
2005,07,04,10,41,17.80
2005,07,04,10,42,17.90
2005,07,04,10,43,17.90
2005,07,04,10,44,17.90
2005,07,04,10,45,17.90
2005,07,04,10,46,17.90
2005,07,04,10,47,17.90
2005,07,04,10,48,17.80
2005,07,04,10,49,17.70
2005,07,04,10,50,17.70
2005,07,04,10,51,17.60
2005,07,04,10,52,17.60
2005,07,04,10,53,17.70
2005,07,04,10,54,17.70
2005,07,04,10,55,17.60
2005,07,04,10,56,17.60
2005,07,04,10,57,17.50
2005,07,04,10,58,17.50
2005,07,04,10,59,17.50
2005,07,04,11,00,17.50
2005,07,04,11,01,17.50
2005,07,04,11,02,17.50
2005,07,04,11,03,17.50
2005,07,04,11,04,17.50
2005,07,04,11,05,17.50
2005,07,04,11,06,17.50
2005,07,04,11,07,17.40
2005,07,04,11,08,17.40
2005,07,04,11,09,17.30
2005,07,04,11,10,17.30
2005,07,04,11,11,17.30
2005,07,04,11,12,17.30
2005,07,04,11,13,17.30
2005,07,04,11,14,17.30
2005,07,04,11,15,17.30
2005,07,04,11,16,17.30
2005,07,04,11,17,17.40
2005,07,04,11,18,17.40
2005,07,04,11,19,17.40
2005,07,04,11,20,17.40
2005,07,04,11,21,17.40
2005,07,04,11,22,17.50
2005,07,04,11,23,17.60
2005,07,04,11,24,17.60
2005,07,04,11,25,17.60
2005,07,04,11,26,17.60
2005,07,04,11,27,17.70
2005,07,04,11,28,17.60
2005,07,04,11,29,17.60
2005,07,04,11,30,17.50
2005,07,04,11,31,17.50
2005,07,04,11,32,17.50
2005,07,04,11,33,17.40
2005,07,04,11,34,17.40
2005,07,04,11,35,17.40
2005,07,04,11,36,17.40
2005,07,04,11,37,17.30
2005,07,04,11,38,17.30
2005,07,04,11,39,17.40
2005,07,04,11,40,17.40
2005,07,04,11,41,17.50
2005,07,04,11,42,17.50
2005,07,04,11,43,17.50
2005,07,04,11,44,17.50
2005,07,04,11,45,17.50
2005,07,04,11,46,17.60
2005,07,04,11,47,17.60
2005,07,04,11,48,17.60
2005,07,04,11,49,17.50
2005,07,04,11,50,17.50
2005,07,04,11,51,17.50
2005,07,04,11,52,17.40
2005,07,04,11,53,17.40
2005,07,04,11,54,17.30
2005,07,04,11,55,17.30
2005,07,04,11,56,17.30
2005,07,04,11,57,17.30
2005,07,04,11,58,17.30
2005,07,04,11,59,17.30
2005,07,04,12,00,17.30
2005,07,04,12,01,17.30
2005,07,04,12,02,17.30
2005,07,04,12,03,17.30
2005,07,04,12,04,17.40
2005,07,04,12,05,17.50
2005,07,04,12,06,17.60
2005,07,04,12,07,17.70
2005,07,04,12,08,17.80
2005,07,04,12,09,17.90
2005,07,04,12,10,18.00
2005,07,04,12,11,18.10
2005,07,04,12,12,18.20
2005,07,04,12,13,18.30
2005,07,04,12,14,18.50
2005,07,04,12,15,18.50
2005,07,04,12,16,18.50
2005,07,04,12,17,18.50
2005,07,04,12,18,18.50
2005,07,04,12,19,18.50
2005,07,04,12,20,18.50
2005,07,04,12,21,18.60
2005,07,04,12,22,18.60
2005,07,04,12,23,18.60
2005,07,04,12,24,18.60
2005,07,04,12,25,18.50
2005,07,04,12,26,18.60
2005,07,04,12,27,18.70
2005,07,04,12,28,18.80
2005,07,04,12,29,18.80
2005,07,04,12,30,18.90
2005,07,04,12,31,18.90
2005,07,04,12,32,18.90
2005,07,04,12,33,18.90
2005,07,04,12,34,18.90
2005,07,04,12,35,19.10
2005,07,04,12,36,19.10
2005,07,04,12,37,19.30
2005,07,04,12,38,19.40
2005,07,04,12,39,19.40
2005,07,04,12,40,19.40
2005,07,04,12,41,19.30
2005,07,04,12,42,19.20
2005,07,04,12,43,19.10
2005,07,04,12,44,19.10
2005,07,04,12,45,19.00
2005,07,04,12,46,19.10
2005,07,04,12,47,19.10
2005,07,04,12,48,19.30
2005,07,04,12,49,19.50
2005,07,04,12,50,19.60
2005,07,04,12,51,19.80
2005,07,04,12,52,19.90
2005,07,04,12,53,20.00
2005,07,04,12,54,20.10
2005,07,04,12,55,20.20
2005,07,04,12,56,20.20
2005,07,04,12,57,20.30
2005,07,04,12,58,20.40
2005,07,04,12,59,20.20
2005,07,04,13,00,20.10
2005,07,04,13,01,20.00
2005,07,04,13,02,19.90
2005,07,04,13,03,19.90
2005,07,04,13,04,19.80
2005,07,04,13,05,19.90
2005,07,04,13,06,19.80
2005,07,04,13,07,19.70
2005,07,04,13,08,19.60
2005,07,04,13,09,19.60
2005,07,04,13,10,19.60
2005,07,04,13,11,19.50
2005,07,04,13,12,19.50
2005,07,04,13,13,19.60
2005,07,04,13,14,19.60
2005,07,04,13,15,19.70
2005,07,04,13,16,19.70
2005,07,04,13,17,19.80
2005,07,04,13,18,19.70
2005,07,04,13,19,19.60
2005,07,04,13,20,19.60
2005,07,04,13,21,19.50
2005,07,04,13,22,19.50
2005,07,04,13,23,19.30
2005,07,04,13,24,19.20
2005,07,04,13,25,19.10
2005,07,04,13,26,19.20
2005,07,04,13,27,19.20
2005,07,04,13,28,19.20
2005,07,04,13,29,19.20
2005,07,04,13,30,19.20
2005,07,04,13,31,19.20
2005,07,04,13,32,19.40
2005,07,04,13,33,19.30
2005,07,04,13,34,19.40
2005,07,04,13,35,19.40
2005,07,04,13,36,19.40
2005,07,04,13,37,19.60
2005,07,04,13,38,19.60
2005,07,04,13,39,19.60
2005,07,04,13,40,19.50
2005,07,04,13,41,19.50
2005,07,04,13,42,19.50
2005,07,04,13,43,19.30
2005,07,04,13,44,19.40
2005,07,04,13,45,19.50
2005,07,04,13,46,19.60
2005,07,04,13,47,19.90
2005,07,04,13,48,19.90
2005,07,04,13,49,19.90
2005,07,04,13,50,20.00
2005,07,04,13,51,20.10
2005,07,04,13,52,20.10
2005,07,04,13,53,20.20
2005,07,04,13,54,20.20
2005,07,04,13,55,20.10
2005,07,04,13,56,20.10
2005,07,04,13,57,20.10
2005,07,04,13,58,20.20
2005,07,04,13,59,20.20
2005,07,04,14,00,20.20
2005,07,04,14,01,20.30
2005,07,04,14,02,20.20
2005,07,04,14,03,20.10
2005,07,04,14,04,20.00
2005,07,04,14,05,19.70
2005,07,04,14,06,19.70
2005,07,04,14,07,19.80
2005,07,04,14,08,19.90
2005,07,04,14,09,20.00
2005,07,04,14,10,20.10
2005,07,04,14,11,20.20
2005,07,04,14,12,20.30
2005,07,04,14,13,20.30
2005,07,04,14,14,20.30
2005,07,04,14,15,20.20
2005,07,04,14,16,20.20
2005,07,04,14,17,20.10
2005,07,04,14,18,20.10
2005,07,04,14,19,20.10
2005,07,04,14,20,20.10
2005,07,04,14,21,20.10
2005,07,04,14,22,20.10
2005,07,04,14,23,20.10
2005,07,04,14,24,20.00
2005,07,04,14,25,20.10
2005,07,04,14,26,20.20
2005,07,04,14,27,20.30
2005,07,04,14,28,20.40
2005,07,04,14,29,20.50
2005,07,04,14,30,20.60
2005,07,04,14,31,20.70
2005,07,04,14,32,20.80
2005,07,04,14,33,21.00
2005,07,04,14,34,21.10
2005,07,04,14,35,21.20
2005,07,04,14,36,21.20
2005,07,04,14,37,21.20
2005,07,04,14,38,21.10
2005,07,04,14,39,21.00
2005,07,04,14,40,20.90
2005,07,04,14,41,20.80
2005,07,04,14,42,20.60
2005,07,04,14,43,20.70
2005,07,04,14,44,20.80
2005,07,04,14,45,20.90
2005,07,04,14,46,21.00
2005,07,04,14,47,20.90
2005,07,04,14,48,20.80
2005,07,04,14,49,20.70
2005,07,04,14,50,20.60
2005,07,04,14,51,20.50
2005,07,04,14,52,20.30
2005,07,04,14,53,20.30
2005,07,04,14,54,20.20
2005,07,04,14,55,20.20
2005,07,04,14,56,20.20
2005,07,04,14,57,20.20
2005,07,04,14,58,20.30
2005,07,04,14,59,20.30
2005,07,04,15,00,20.30
2005,07,04,15,01,20.20
2005,07,04,15,02,20.20
2005,07,04,15,03,20.20
2005,07,04,15,04,20.20
2005,07,04,15,05,20.20
2005,07,04,15,06,20.20
2005,07,04,15,07,20.30
2005,07,04,15,08,20.40
2005,07,04,15,09,20.50
2005,07,04,15,10,20.50
2005,07,04,15,11,20.50
2005,07,04,15,12,20.60
2005,07,04,15,13,20.70
2005,07,04,15,14,20.80
2005,07,04,15,15,21.00
2005,07,04,15,16,21.10
2005,07,04,15,17,21.10
2005,07,04,15,18,21.20
2005,07,04,15,19,21.20
2005,07,04,15,20,21.20
2005,07,04,15,21,21.30
2005,07,04,15,22,21.30
2005,07,04,15,23,21.30
2005,07,04,15,24,21.30
2005,07,04,15,25,21.20
2005,07,04,15,26,21.10
2005,07,04,15,27,21.00
2005,07,04,15,28,20.90
2005,07,04,15,29,20.80
2005,07,04,15,30,20.80
2005,07,04,15,31,20.80
2005,07,04,15,32,20.90
2005,07,04,15,33,20.90
2005,07,04,15,34,20.90
2005,07,04,15,35,20.90
2005,07,04,15,36,20.80
2005,07,04,15,37,20.80
2005,07,04,15,38,20.80
2005,07,04,15,39,20.90
2005,07,04,15,40,20.90
2005,07,04,15,41,20.90
2005,07,04,15,42,20.90
2005,07,04,15,43,21.00
2005,07,04,15,44,21.10
2005,07,04,15,45,21.10
2005,07,04,15,46,21.10
2005,07,04,15,47,21.10
2005,07,04,15,48,21.10
2005,07,04,15,49,21.20
2005,07,04,15,50,21.30
2005,07,04,15,51,21.30
2005,07,04,15,52,21.30
2005,07,04,15,53,21.30
2005,07,04,15,54,21.40
2005,07,04,15,55,21.50
2005,07,04,15,56,21.60
2005,07,04,15,57,21.60
2005,07,04,15,58,21.80
2005,07,04,15,59,21.80
2005,07,04,16,00,21.90
2005,07,04,16,01,22.00
2005,07,04,16,02,22.00
2005,07,04,16,03,22.10
2005,07,04,16,04,22.20
2005,07,04,16,05,22.20
2005,07,04,16,06,22.30
2005,07,04,16,07,22.30
2005,07,04,16,08,22.40
2005,07,04,16,09,22.40
2005,07,04,16,10,22.20
2005,07,04,16,11,22.10
2005,07,04,16,12,22.00
2005,07,04,16,13,21.90
2005,07,04,16,14,21.80
2005,07,04,16,15,21.80
2005,07,04,16,16,21.90
2005,07,04,16,17,21.90
2005,07,04,16,18,21.90
2005,07,04,16,19,21.90
2005,07,04,16,20,22.00
2005,07,04,16,21,22.00
2005,07,04,16,22,22.10
2005,07,04,16,23,22.10
2005,07,04,16,24,22.20
2005,07,04,16,25,22.20
2005,07,04,16,26,22.20
2005,07,04,16,27,22.20
2005,07,04,16,28,22.20
2005,07,04,16,29,22.20
2005,07,04,16,30,22.20
2005,07,04,16,31,22.20
2005,07,04,16,32,22.10
2005,07,04,16,33,22.10
2005,07,04,16,34,22.10
2005,07,04,16,35,22.10
2005,07,04,16,36,22.10
2005,07,04,16,37,22.20
2005,07,04,16,38,22.20
2005,07,04,16,39,22.30
2005,07,04,16,40,22.40
2005,07,04,16,41,22.40
2005,07,04,16,42,22.50
2005,07,04,16,43,22.60
2005,07,04,16,44,22.70
2005,07,04,16,45,22.70
2005,07,04,16,46,22.70
2005,07,04,16,47,22.70
2005,07,04,16,48,22.70
2005,07,04,16,49,22.70
2005,07,04,16,50,22.70
2005,07,04,16,51,22.80
2005,07,04,16,52,22.80
2005,07,04,16,53,22.80
2005,07,04,16,54,22.80
2005,07,04,16,55,22.80
2005,07,04,16,56,22.80
2005,07,04,16,57,22.80
2005,07,04,16,58,22.80
2005,07,04,16,59,22.70
2005,07,04,17,00,22.80
2005,07,04,17,01,22.80
2005,07,04,17,02,22.70
2005,07,04,17,03,22.70
2005,07,04,17,04,22.60
2005,07,04,17,05,22.60
2005,07,04,17,06,22.70
2005,07,04,17,07,22.70
2005,07,04,17,08,22.60
2005,07,04,17,09,22.60
2005,07,04,17,10,22.50
2005,07,04,17,11,22.50
2005,07,04,17,12,22.50
2005,07,04,17,13,22.40
2005,07,04,17,14,22.40
2005,07,04,17,15,22.40
2005,07,04,17,16,22.30
2005,07,04,17,17,22.30
2005,07,04,17,18,22.30
2005,07,04,17,19,22.30